ARIANE 42P DEB, 44510

Orbit data source: Space-Track

ARIANE 42P DEB, 44510 is space debris in LEO originally from a launch on Mon, 10 Aug 1992 UTC launched from the French Guiana (FRGUI). Debris objects in space refer to the collection of defunct objects orbiting the Earth. Examples of debris include non-operational satellites, rocket bodies, and fragments generated from explosions, collisions, or faulty payload assembly.

Loading next visibility...
ARIANE 42P DEB details
Identifier
44510, 1992-052H
Orbit
LEO
Last TLE update22 hours ago
Origin
Flag of FRArianespace (FR)
ManufacturerArianeGroup
MissionSpacecraft
Bus & MotorUnknown
MassUnknown
Launch date (UTC)
1992-08-10 (32 years ago)
Launch vehicleUnknown
Launch site
French Guiana (FRGUI)
Object type
Payload
Rocket body
Debris
Shape & HBRUnknown
Radar Cross SectionSmall (<0.1 m²)

Expand to show TLE details & history

TLE from 22 hours ago
0 ARIANE 42P DEB
1 44510U 92052H   24338.50137468  .00002098  00000-0  92351-2 0  9997
2 44510  66.0597  23.2027 0094695 201.5734 158.1279 12.80582820247754
Epoch: 2024-12-03T12:01Z
Definitive object data (Epoch: 2024-12-03T12:01:58.772Z)
Latitude-0.00007°
Longitude129.89782°
Altitude1,408.958 km
Speed7.125 km/s
True Right ascension01h 32m 48s
True Declination0° 00' 00"
Sunlit
Object was in full shadow at TLE epoch
Visualization TLE readout
Latitude-65.40084°
Longitude53.20764°
Altitude1,343.76 km
Speed7.195 km/s
Apparent Right ascension20h 10m 02s
Apparent Declination-53° 46' 47"
Sunlit
Object is in daylight
Visualization observer readout
Local Sidereal Time07:59:30
Azimuth186.449° SSW
Elevation-76.023°
Doppler factor1
Orbital elements
Apogee altitude1,410.754 km
Perigee altitude1,264.623 km
Semi-major axis7,715.826 km
Eccentricity0.0094695
Inclination66.0597°
RAAN23.2027°
Arg. of periapsis201.5734°
True anomaly158.52775°
Mean anomaly158.1279°
Eccentric anomaly158.32826°
Mean motion3.20236 °/min
BSTAR0.0092351
Orbital period112.42 mins
Loading maneuver chart data...
Loading historical data...
Loading historical data...
Loading historical data...
Loading historical data...
Loading historical data...
Loading historical data...
Loading historical data...

ARIANE 42P DEB Visibility forecast

Observer location: undefined°, undefined

Span
Click to sort rows by Start time (UTC) header in descending order
Start Az.
Max El. time (UTC)
Max El. Az.
Max El.
End time (UTC)
End Az.
7 mins2024-12-04 11:03:07.187Z0.024° NNE2024-12-04 11:06:07.187Z23.06° NE14.043°2024-12-04 11:10:07.187Z53.752° ENE
14 mins2024-12-04 12:58:07.187Z342.176° N2024-12-04 13:05:07.187Z58.686° ENE35.579°2024-12-04 13:12:07.187Z122.261° SE
12 mins2024-12-04 14:55:07.187Z309.939° NW2024-12-04 15:00:07.187Z258.345° W33.262°2024-12-04 15:07:07.187Z186.115° SSW
13 mins2024-12-05 03:30:07.187Z163.278° S2024-12-05 03:36:07.187Z106.373° ESE30.386°2024-12-05 03:43:07.187Z47.052° ENE
14 mins2024-12-05 05:25:07.187Z233.546° WSW2024-12-05 05:32:07.187Z317.257° NNW39.312°2024-12-05 05:39:07.187Z21.856° NNE
8 mins2024-12-05 07:26:07.187Z302.17° NW2024-12-05 07:30:07.187Z333.777° NNW16.305°2024-12-05 07:34:07.187Z4.399° NNE
|